Simultaneous Nadir Overpasses (SNOs) Predictions

Prediction of SNOs between AQUA and GOES-15 Satellite Orbit:

Table of predicted SNOs for the next 14.0 days since TLE Epoch: 7/24/2020
Index Date Time (AQUA) AQUA Lat,Lon GOES-15 Lat,Lon Distance(km) Time Diff (sec)
1 07/25/2020 22:04:15 0.24,-127.17 -0.01,-128.37 135.84 80
2 07/26/2020 10:25:31 0.85,-132.33 0.01,-128.43 444.26 80
3 07/27/2020 21:52:04 0.88,-124.22 -0.01,-128.37 472.52 80
4 07/28/2020 10:13:20 0.21,-129.38 0.01,-128.43 107.74 80
5 07/30/2020 10:01:09 -0.44,-126.42 0.02,-128.43 228.24 80
6 07/30/2020 22:22:32 -0.72,-131.60 -0.02,-128.37 368.47 80
7 08/01/2020 22:10:21 -0.08,-128.65 -0.02,-128.36 33.06 80
8 08/03/2020 21:58:10 0.57,-125.70 -0.02,-128.35 302.14 80
9 08/04/2020 10:19:25 0.57,-130.85 0.02,-128.41 278.19 80
10 08/06/2020 10:07:14 -0.08,-127.89 0.02,-128.39 56.86 80
